Regional Weather Roundup
Issued by NWS

Home | Current Version | Previous Version | Text Only | Print | Product List | Glossary On
Versions: 1 2 3 4 5 6 7 8 9 10 11 12 13 14 15 16 17 18 19 20 21 22 23 24 25 26 27 28 29 30 31 32 33 34 35 36 37 38 39 40 41 42 43 44 45 46 47 48 49 50
000
ASUS43 KLMK 161002
RWRKY
KENTUCKY REGIONAL WEATHER ROUNDUP
NATIONAL WEATHER SERVICE LOUISVILLE KY
600 AM EDT WED APR 16 2014

NOTE "FAIR" INDICATES FEW OR NO CLOUDS BELOW 12,000 FEET
WITH NO SIGNIFICANT WEATHER AND/OR OBSTRUCTIONS TO VISIBILITY.

KYZ001>023-026-027-061>063-070>075-161100-
WESTERN AND SOUTH CENTRAL KENTUCKY

CITY           SKY/WX    TMP DP  RH WIND       PRES   REMARKS
PADUCAH        CLEAR     33  26  75 E5        30.27S WCI  29
HENDERSON      PTCLDY    34  21  60 SE7       30.31R WCI  28
OWENSBORO      CLEAR     32  23  69 SE8       30.33S WCI  25
HOPKINSVILLE   CLEAR     32  23  69 E9        30.29S WCI  24
BOWLING GREEN  CLEAR     28  22  78 CALM      30.32S
GLASGOW        NOT AVBL
$$

KYZ024-025-028>034-038-045-046-053-161100-
NORTH CENTRAL KENTUCKY

CITY           SKY/WX    TMP DP  RH WIND       PRES   REMARKS
LOUISVILLE/SDF PTCLDY    32  21  64 CALM      30.36R
LOUISVILLE/LOU CLEAR     33  20  58 CALM      30.36R
FORT KNOX      CLEAR     29  20  68 E3        30.33R
$$

KYZ035>037-039>044-047>052-055>060-089>105-161100-
NORTHEAST KENTUCKY

CITY           SKY/WX    TMP DP  RH WIND       PRES   REMARKS
LEXINGTON      CLEAR     29  18  63 E8        30.34S WCI  21
COVINGTON      CLEAR     28  17  63 SE3       30.35R
FRANKFORT      CLEAR     24  21  88 CALM      30.34S
$$

KYZ054-064>069-076>088-106>120-161100-
SOUTHEAST KENTUCKY

CITY           SKY/WX    TMP DP  RH WIND       PRES   REMARKS
JACKSON        CLEAR     27  18  69 CALM      30.33R
LONDON         CLEAR     28  21  75 NE5       30.32R WCI  23
SOMERSET       NOT AVBL
MIDDLESBORO    NOT AVBL
MONTICELLO     SUNNY     49  47  93 CALM      30.34R
$$




USA.gov is the U.S. government's official web portal to all federal, state and local government web resources and services.